Location: Falniów
(50.3639°N, 19.9642°E)
Time: 12:01:54
(UTC+00:00)

SPOT 1/Viking Rocket - Pass Details

Date: 18 January 2026
Orbit: 772 x 789 km, 98.2° (Epoch: 16 February)

Event Time Altitude Azimuth Distance (km) Brightness Sun altitude
Rises 05:40:54 0° 15° (NNE) 3,262 6.7 -8.0°
Reaches altitude 10° 05:43:14 10° 18° (NNE) 2,330 6.0 -7.7°
Maximum altitude 05:48:21 70° 102° (ESE) 826 4.0 -6.9°
Drops below altitude 10° 05:53:27 10° 187° (S) 2,315 6.2 -6.2°
Sets 05:55:46 0° 189° (S) 3,240 7.0 -5.9°
